Regional Weather Roundup
Issued by NWS

Home | Current Version | Previous Version | Graphics & Text | Print | Product List | Glossary Off
Versions: 1 2 3 4 5 6 7 8 9 10 11 12 13 14 15 16 17 18 19 20 21 22 23 24 25 26 27 28 29 30 31 32 33 34 35 36 37 38 39 40 41 42 43 44 45 46 47 48 49 50

000
ASUS43 KTOP 260408
RWRKS

WEATHER ROUNDUP FOR KANSAS
NATIONAL WEATHER SERVICE GOODLAND KS
1000 PM CST TUE NOV 25 2014

NOTE:  "FAIR" INDICATES FEW OR NO CLOUDS BELOW 12,000 FEET WITH NO
SIGNIFICANT WEATHER AND/OR OBSTRUCTIONS TO VISIBILITY.

KSZ001>006-013>018-027>032-041>047-260500-
NORTHWEST KANSAS

CITY           SKY/WX    TMP DP  RH WIND       PRES   REMARKS
GOODLAND       LGT RAIN  39  33  79 N14       29.99R WCI  31
HAYS           CLOUDY    41  16  36 W5        29.90F
HILL CITY      CLOUDY    48  24  39 NW14      29.91R
RUSSELL        CLOUDY    44  21  40 S12       29.90S
$$

KSZ061>065-074>080-084>089-260500-
SOUTHWEST KANSAS

CITY           SKY/WX    TMP DP  RH WIND       PRES   REMARKS
DODGE CITY     MOCLDY    34  15  46 S7        29.92S
ELKHART          N/A     40  15  36 W9          N/A
GARDEN CITY    MOCLDY    34  15  46 NW8       29.92R
GREAT BEND     CLOUDY    43  19  39 S15       29.93S
LIBERAL        CLEAR     32  12  43 W9        29.94F
PRATT          MOCLDY    39  25  56 S16       29.95R WCI  30
$$

KSZ066>073-081>083-090>101-260500-
SOUTHEAST KANSAS

CITY           SKY/WX    TMP DP  RH WIND       PRES   REMARKS
CHANUTE        MOCLDY    36  25  64 S8        30.06F
COFFEYVILLE    MOCLDY    38  25  59 S8        30.07F
HUTCHINSON     CLOUDY    44  28  53 S13       29.95F
MEDICINE LODGE   N/A     40  27  59 SE6       29.96F
NEWTON         MOCLDY    41  25  52 S13       29.98S
PARSONS        MOCLDY    39  24  55 S6        30.08F
WICHITA INTL   MOCLDY    42  27  55 S12       29.98F
WICHITA JABRA  PTCLDY    41  27  57 S12       29.98F
WICHITA MCCONL CLOUDY    42  26  53 SE13      29.98F
WINFIELD       PTCLDY    39  28  64 SE12      30.02F WCI  32
$$

KSZ007>012-019>026-033>040-048>060-102>105-260500-
NORTHEAST KANSAS

CITY           SKY/WX    TMP DP  RH WIND       PRES   REMARKS
CONCORDIA      CLOUDY    43  27  53 S17G28    29.89R
EMPORIA        PTCLDY    36  23  59 S15       30.00R WCI  27
LAWRENCE       CLOUDY    39  22  50 SE12      30.02F WCI  32
MANHATTAN      CLOUDY    43  26  51 S15G23    29.94F
MARYSVILLE     CLOUDY    41  27  56 S10       29.89F
OLATHE IND     CLOUDY    37  21  52 S13       30.03F WCI  29
OLATHE EXE     CLOUDY    35  22  58 S7        30.03F
SALINA         CLOUDY    45  27  49 S24G32    29.93F
TOPEKA BILLARD CLOUDY    42  23  46 S10       29.99F
TOPEKA FORBES  CLOUDY    40  23  50 S13       29.98F WCI  32
$$



USA.gov is the U.S. government's official web portal to all federal, state and local government web resources and services.